Date String (YYYY-MM-DD hh:mm:ss) UTC,Instrument flags,Ambient pressure (hPa),Sample flow (lpm),Bypass flow (lpm),Sample temperature (°C),Ambient temperature (°C),ASC tube jacket temperature (°C),LED temperature (°C),Box temperature (°C),Sample RH (%),Span deviation,Mass concentration (μg/m³),Mass concentration (μg/m³),Mass concentration (μg/m³)
DateTimeUTC,F1_M11,P_M11,Q1_M11,Q2_M11,T1_M11,T2_M11,T3_M11,T4_M11,T5_M11,U1_M11,ZSPAN_M11,X0_M11,X2_M11,X1_M11
2022-11-26 14:00:00,,0821.2,5.00,0.00,21.7,20.6,00.0,30.6,23.5,13.6,0000.0,0002.76,0001.39,0000.98
2022-11-26 14:01:00,,0821.1,5.01,0.00,21.7,20.4,00.0,30.6,23.5,13.7,0000.0,0002.82,0001.38,0000.97
2022-11-26 14:02:00,,0821.1,5.00,0.00,21.6,20.3,00.0,30.6,23.4,13.7,0000.0,0002.73,0001.37,0000.98
2022-11-26 14:03:00,,0821.2,4.99,0.00,21.6,20.2,00.0,30.6,23.4,13.7,0000.0,0002.65,0001.35,0001.00
2022-11-26 14:04:00,,0821.2,5.00,0.00,21.6,20.1,00.0,30.6,23.4,13.7,0000.0,0002.65,0001.33,0000.99
2022-11-26 14:05:00,,0821.2,5.00,0.00,21.6,20.0,00.0,30.6,23.4,13.7,0000.0,0002.60,0001.31,0000.99
2022-11-26 14:06:00,,0821.3,5.01,0.00,21.6,20.0,00.0,30.6,23.4,13.7,0000.0,0002.63,0001.35,0001.01
2022-11-26 14:07:00,,0821.3,5.01,0.00,21.6,20.0,00.0,30.6,23.3,13.7,0000.0,0002.65,0001.37,0001.02
2022-11-26 14:08:00,,0821.3,4.99,0.00,21.5,19.9,00.0,30.6,23.3,13.7,0000.0,0002.61,0001.38,0001.04
2022-11-26 14:09:00,,0821.4,5.00,0.00,21.5,19.9,00.0,30.6,23.3,13.7,0000.0,0002.53,0001.39,0001.04
2022-11-26 14:10:00,,0821.3,5.01,0.00,21.5,19.9,00.0,30.6,23.3,13.7,0000.0,0002.53,0001.40,0001.04
2022-11-26 14:11:00,,0821.3,4.99,0.00,21.5,19.8,00.0,30.6,23.3,13.8,0000.0,0002.25,0001.37,0001.04
2022-11-26 14:12:00,,0821.2,4.99,0.00,21.5,19.8,00.0,30.6,23.3,13.8,0000.0,0002.12,0001.35,0001.03
2022-11-26 14:13:00,,0821.3,5.02,0.00,21.4,19.8,00.0,30.6,23.2,13.7,0000.0,0001.99,0001.30,0001.02
2022-11-26 14:14:00,,0821.3,4.98,0.00,21.4,19.7,00.0,30.5,23.2,13.7,0000.0,0001.96,0001.27,0001.00
2022-11-26 14:15:00,,0821.3,5.00,0.00,21.4,19.7,00.0,30.5,23.2,13.7,0000.0,0001.93,0001.25,0001.00
2022-11-26 14:16:00,,0821.3,5.01,0.00,21.4,19.7,00.0,30.5,23.2,13.7,0000.0,0001.95,0001.27,0000.99
2022-11-26 14:17:00,,0821.3,4.99,0.00,21.4,19.7,00.0,30.5,23.2,13.8,0000.0,0001.84,0001.22,0000.97
2022-11-26 14:18:00,,0821.3,5.01,0.00,21.4,19.8,00.0,30.5,23.2,13.7,0000.0,0002.04,0001.21,0000.96
2022-11-26 14:19:00,,0821.3,5.00,0.00,21.4,19.8,00.0,30.5,23.2,13.7,0000.0,0002.56,0001.20,0000.95
2022-11-26 14:20:00,,0821.3,4.99,0.00,21.4,19.8,00.0,30.5,23.2,13.7,0000.0,0002.63,0001.22,0000.95
2022-11-26 14:21:00,,0821.3,4.99,0.00,21.4,19.8,00.0,30.5,23.2,13.8,0000.0,0002.64,0001.23,0000.94
2022-11-26 14:22:00,,0821.3,5.01,0.00,21.4,19.9,00.0,30.4,23.2,13.8,0000.0,0002.61,0001.22,0000.94
2022-11-26 14:23:00,,0821.3,4.99,0.00,21.4,19.9,00.0,30.4,23.2,13.8,0000.0,0002.67,0001.23,0000.94
2022-11-26 14:24:00,,0821.4,5.00,0.00,21.4,20.0,00.0,30.4,23.2,13.8,0000.0,0002.79,0001.28,0000.95
2022-11-26 14:25:00,,0821.4,5.00,0.00,21.4,20.0,00.0,30.4,23.2,13.9,0000.0,0002.82,0001.30,0000.96
2022-11-26 14:26:00,,0821.4,4.99,0.00,21.4,20.0,00.0,30.4,23.2,13.9,0000.0,0002.78,0001.30,0000.97
2022-11-26 14:27:00,,0821.4,4.99,0.00,21.4,20.0,00.0,30.4,23.2,14.0,0000.0,0002.70,0001.29,0000.98
2022-11-26 14:28:00,,0821.4,5.02,0.00,21.4,20.0,00.0,30.4,23.2,14.0,0000.0,0002.67,0001.29,0000.99
2022-11-26 14:29:00,,0821.4,4.99,0.00,21.4,20.1,00.0,30.4,23.2,13.9,0000.0,0002.47,0001.28,0001.00
2022-11-26 14:30:00,,0821.4,5.00,0.00,21.4,20.1,00.0,30.4,23.2,13.8,0000.0,0002.14,0001.30,0001.01
2022-11-26 14:31:00,,0821.4,5.02,0.00,21.4,20.1,00.0,30.4,23.2,13.9,0000.0,0003.00,0001.31,0001.03
2022-11-26 14:32:00,,0821.4,4.99,0.00,21.4,20.1,00.0,30.4,23.2,13.9,0000.0,0003.08,0001.38,0001.09
2022-11-26 14:33:00,,0821.4,5.00,0.00,21.4,20.1,00.0,30.4,23.2,13.7,0000.0,0003.09,0001.40,0001.12
2022-11-26 14:34:00,,0821.4,5.01,0.00,21.4,20.2,00.0,30.4,23.3,13.6,0000.0,0003.07,0001.41,0001.13
2022-11-26 14:35:00,,0821.3,5.01,0.00,21.4,20.2,00.0,30.4,23.2,13.3,0000.0,0002.97,0001.37,0001.13
2022-11-26 14:36:00,,0821.3,4.99,0.00,21.4,20.3,00.0,30.4,23.3,13.1,0000.0,0002.96,0001.35,0001.10
2022-11-26 14:37:00,,0821.3,4.99,0.00,21.5,20.3,00.0,30.4,23.2,13.3,0000.0,0002.93,0001.31,0001.06
2022-11-26 14:38:00,,0821.3,5.00,0.00,21.5,20.3,00.0,30.4,23.3,13.3,0000.0,0003.01,0001.31,0001.04
2022-11-26 14:39:00,,0821.2,5.01,0.00,21.5,20.4,00.0,30.4,23.4,13.2,0000.0,0003.11,0001.31,0001.02
2022-11-26 14:40:00,,0821.1,5.01,0.00,21.5,20.4,00.0,30.4,23.4,13.1,0000.0,0003.03,0001.27,0000.98
2022-11-26 14:41:00,,0821.1,5.00,0.00,21.5,20.4,00.0,30.4,23.3,13.1,0000.0,0002.71,0001.22,0000.94
2022-11-26 14:42:00,,0821.2,5.00,0.00,21.5,20.4,00.0,30.4,23.4,13.0,0000.0,0001.89,0001.15,0000.89
2022-11-26 14:43:00,,0821.1,5.00,0.00,21.6,20.4,00.0,30.4,23.4,12.8,0000.0,0001.83,0001.06,0000.81
2022-11-26 14:44:00,,0821.0,5.00,0.00,21.6,20.4,00.0,30.4,23.4,12.8,0000.0,0001.78,0001.00,0000.75
2022-11-26 14:45:00,,0821.0,4.99,0.00,21.6,20.4,00.0,30.4,23.4,12.7,0000.0,0001.72,0000.94,0000.69
2022-11-26 14:46:00,,0821.0,5.01,0.00,21.6,20.4,00.0,30.5,23.4,12.6,0000.0,0001.68,0000.90,0000.65
2022-11-26 14:47:00,,0821.0,5.01,0.00,21.6,20.4,00.0,30.5,23.4,12.6,0000.0,0001.62,0000.87,0000.64
2022-11-26 14:48:00,,0821.0,5.00,0.00,21.6,20.4,00.0,30.5,23.4,12.5,0000.0,0001.58,0000.84,0000.61
2022-11-26 14:49:00,,0821.0,5.00,0.00,21.6,20.5,00.0,30.5,23.4,12.5,0000.0,0001.43,0000.80,0000.57
2022-11-26 14:50:00,,0821.0,5.00,0.00,21.6,20.5,00.0,30.5,23.4,12.5,0000.0,0001.24,0000.73,0000.54
2022-11-26 14:51:00,,0821.0,5.01,0.00,21.7,20.5,00.0,30.5,23.5,12.4,0000.0,0001.14,0000.68,0000.52
2022-11-26 14:52:00,,0821.0,4.99,0.00,21.7,20.5,00.0,30.5,23.5,12.3,0000.0,0001.05,0000.63,0000.49
2022-11-26 14:53:00,,0821.0,5.00,0.00,21.7,20.5,00.0,30.5,23.5,12.4,0000.0,0000.92,0000.59,0000.46
2022-11-26 14:54:00,,0821.0,5.00,0.00,21.7,20.5,00.0,30.5,23.5,12.4,0000.0,0000.81,0000.56,0000.44
2022-11-26 14:55:00,,0821.0,5.01,0.00,21.7,20.6,00.0,30.5,23.5,12.5,0000.0,0000.81,0000.55,0000.43
2022-11-26 14:56:00,,0821.0,4.99,0.00,21.7,20.6,00.0,30.6,23.5,12.6,0000.0,0000.82,0000.54,0000.42
2022-11-26 14:57:00,,0821.0,4.98,0.00,21.7,20.6,00.0,30.6,23.5,12.7,0000.0,0000.93,0000.54,0000.43
2022-11-26 14:58:00,,0821.0,5.00,0.00,21.7,20.6,00.0,30.6,23.5,12.8,0000.0,0000.98,0000.54,0000.42
2022-11-26 14:59:00,,0821.0,5.01,0.00,21.7,20.6,00.0,30.6,23.5,12.7,0000.0,0000.96,0000.54,0000.43
